Weather History for Monett, MO

Change the Weather History Date:

Tuesday, April 9, 2013

  Actual Average (KJLN) Record (KJLN)
Temperature  
Mean Temperature 66 °F 56 °F  
Max Temperature 73 °F 68 °F 88 °F (2011)
Min Temperature 60 °F 45 °F 29 °F (1997)
Degree Days  
Heating Degree Days 0 10  
Month to date heating degree days 97  
Since 1 July heating degree days 3859  
Cooling Degree Days 2 1  
Month to date cooling degree days 9  
Year to date cooling degree days 19  
Growing Degree Days 16 (Base 50)    
Moisture  
Dew Point 58 °F    
Average Humidity 71    
Maximum Humidity 82    
Minimum Humidity 53    
Precipitation  
Precipitation 0.00 in 0.13 in 1.56 in (2008)
Month to date precipitation 1.11  
Year to date precipitation 8.88  
Sea Level Pressure  
Sea Level Pressure 29.75 in    
Wind  
Wind Speed 11 mph (SSE)    
Max Wind Speed 17 mph    
Max Gust Speed 23 mph    
Visibility 10 miles    
Events      
T = Trace of Precipitation, MM = Missing Value Source: NWS Daily Summary

Daily Weather History Graph

Daily Weather History Graph

Search for Another Location

Airport:

Trip Planner

Search our weather history database for the weather conditions in past years. The results will help you decide how hot, cold, wet, or windy it might be!

Date:

Astronomy

Apr. 09, 2013 Rise Set
Actual Time 6:49 AM CDT 7:45 PM CDT
Civil Twilight 6:23 AM CDT 8:12 PM CDT
Nautical Twilight 5:52 AM CDT 8:43 PM CDT
Astronomical Twilight 5:19 AM CDT 9:16 PM CDT
Moon 6:12 AM CDT (4/9) 7:21 PM CDT (4/9)
Length of Visible Light 13h 48m
Length of Day
12h 55m
Waning Crescent, 1% of the Moon is Illuminated
Apr 9
Waning Crescent
Apr 10
New
Apr 18
First Quarter
Apr 25
Full
May 2
Last Quarter

Hourly Weather History & Observations

Time (CDT) Temp. Dew Point Humidity Pressure Visibility Wind Dir Wind Speed Gust Speed Precip Events Conditions
12:15 AM 62.6 °F 55.4 °F 77% 29.76 in 10.0 mi ESE 9.2 mph - N/A   Overcast
12:35 AM 62.6 °F 55.4 °F 77% 29.75 in 10.0 mi ESE 10.4 mph - N/A   Overcast
12:55 AM 62.6 °F 55.4 °F 77% 29.75 in 10.0 mi ESE 11.5 mph - N/A   Overcast
1:15 AM 62.6 °F 55.4 °F 77% 29.75 in 10.0 mi ESE 10.4 mph - N/A   Overcast
1:35 AM 62.6 °F 55.4 °F 77% 29.74 in 10.0 mi ESE 10.4 mph - N/A   Overcast
1:55 AM 62.6 °F 55.4 °F 77% 29.74 in 10.0 mi ESE 10.4 mph - N/A   Overcast
2:15 AM 62.6 °F 55.4 °F 77% 29.74 in 10.0 mi SE 11.5 mph - N/A   Overcast
2:35 AM 62.6 °F 55.4 °F 77% 29.73 in 10.0 mi SE 11.5 mph - N/A   Overcast
2:55 AM 62.6 °F 55.4 °F 77% 29.72 in 10.0 mi SE 15.0 mph 19.6 mph N/A   Overcast
3:15 AM 62.6 °F 55.4 °F 77% 29.72 in 10.0 mi SE 11.5 mph - N/A   Overcast
3:35 AM 60.8 °F 55.4 °F 82% 29.71 in 10.0 mi SE 11.5 mph - N/A   Overcast
3:55 AM 60.8 °F 55.4 °F 82% 29.72 in 10.0 mi SE 9.2 mph - N/A   Scattered Clouds
4:15 AM 60.8 °F 55.4 °F 82% 29.72 in 10.0 mi SE 10.4 mph - N/A   Clear
4:35 AM 60.8 °F 55.4 °F 82% 29.73 in 10.0 mi SSE 11.5 mph - N/A   Clear
4:55 AM 60.8 °F 55.4 °F 82% 29.71 in 10.0 mi SE 11.5 mph - N/A   Clear
5:15 AM 60.8 °F 55.4 °F 82% 29.72 in 10.0 mi SSE 11.5 mph - N/A   Clear
5:35 AM 60.8 °F 55.4 °F 82% 29.72 in 10.0 mi SSE 11.5 mph - N/A   Clear
5:55 AM 60.8 °F 55.4 °F 82% 29.72 in 10.0 mi SSE 13.8 mph - N/A   Clear
6:15 AM 60.8 °F 55.4 °F 82% 29.73 in 10.0 mi SSE 12.7 mph - N/A   Clear
6:35 AM 60.8 °F 55.4 °F 82% 29.74 in 10.0 mi SSE 10.4 mph - N/A   Clear
6:55 AM 60.8 °F 53.6 °F 77% 29.74 in 10.0 mi SSE 10.4 mph - N/A   Scattered Clouds
7:15 AM 60.8 °F 55.4 °F 82% 29.75 in 10.0 mi SSE 10.4 mph - N/A   Overcast
7:35 AM 60.8 °F 55.4 °F 82% 29.75 in 10.0 mi SSE 9.2 mph - N/A   Overcast
7:55 AM 62.6 °F 55.4 °F 77% 29.76 in 10.0 mi South 10.4 mph - N/A   Overcast
8:15 AM 62.6 °F 55.4 °F 77% 29.76 in 10.0 mi SSE 11.5 mph - N/A   Overcast
8:35 AM 64.4 °F 57.2 °F 77% 29.77 in 10.0 mi SSE 11.5 mph - N/A   Overcast
8:55 AM 64.4 °F 57.2 °F 77% 29.77 in 10.0 mi South 11.5 mph - N/A   Overcast
9:15 AM 66.2 °F 59.0 °F 78% 29.77 in 10.0 mi South 10.4 mph - N/A   Overcast
9:35 AM 66.2 °F 59.0 °F 78% 29.78 in 10.0 mi South 12.7 mph - N/A   Overcast
9:55 AM 68.0 °F 59.0 °F 73% 29.78 in 10.0 mi South 11.5 mph 20.7 mph N/A   Overcast
10:15 AM 68.0 °F 59.0 °F 73% 29.79 in 10.0 mi South 11.5 mph - N/A   Overcast
10:55 AM 68.0 °F 59.0 °F 73% 29.79 in 10.0 mi SSE 13.8 mph 21.9 mph N/A   Overcast
11:15 AM 69.8 °F 59.0 °F 68% 29.80 in 10.0 mi SSE 13.8 mph - N/A   Overcast
11:35 AM 69.8 °F 60.8 °F 73% 29.80 in 10.0 mi South 11.5 mph 18.4 mph N/A   Overcast
11:55 AM 69.8 °F 60.8 °F 73% 29.79 in 10.0 mi SSE 9.2 mph - N/A   Overcast
12:15 PM 69.8 °F 60.8 °F 73% 29.79 in 10.0 mi SSE 12.7 mph 20.7 mph N/A   Overcast
12:35 PM 69.8 °F 60.8 °F 73% 29.79 in 10.0 mi SSE 12.7 mph 19.6 mph N/A   Overcast
12:55 PM 69.8 °F 60.8 °F 73% 29.79 in 10.0 mi SE 16.1 mph 21.9 mph N/A   Overcast
1:15 PM 69.8 °F 60.8 °F 73% 29.78 in 10.0 mi SSE 16.1 mph 20.7 mph N/A   Overcast
1:35 PM 69.8 °F 60.8 °F 73% 29.78 in 10.0 mi SE 15.0 mph - N/A   Overcast
1:55 PM 71.6 °F 60.8 °F 69% 29.79 in 10.0 mi SE 12.7 mph 18.4 mph N/A   Overcast
2:15 PM 71.6 °F 60.8 °F 69% 29.78 in 10.0 mi SE 13.8 mph - N/A   Overcast
2:35 PM 71.6 °F 62.6 °F 73% 29.77 in 10.0 mi SSE 11.5 mph 17.3 mph N/A   Mostly Cloudy
2:55 PM 73.4 °F 62.6 °F 69% 29.77 in 10.0 mi SE 10.4 mph - N/A   Overcast
3:15 PM 71.6 °F 60.8 °F 69% 29.76 in 10.0 mi SE 13.8 mph 19.6 mph N/A   Overcast
3:35 PM 71.6 °F 60.8 °F 69% 29.75 in 10.0 mi SE 13.8 mph 19.6 mph N/A   Overcast
3:55 PM 71.6 °F 60.8 °F 69% 29.75 in 10.0 mi SSE 12.7 mph - N/A   Mostly Cloudy
4:15 PM 73.4 °F 60.8 °F 65% 29.75 in 10.0 mi SE 11.5 mph 17.3 mph N/A   Overcast
4:35 PM 73.4 °F 60.8 °F 65% 29.75 in 10.0 mi SSE 10.4 mph - N/A   Overcast
4:55 PM 73.4 °F 60.8 °F 65% 29.74 in 10.0 mi SE 11.5 mph - N/A   Overcast
5:15 PM 73.4 °F 60.8 °F 65% 29.74 in 10.0 mi SSE 11.5 mph - N/A   Overcast
5:35 PM 73.4 °F 59.0 °F 61% 29.74 in 10.0 mi SSE 17.3 mph 23.0 mph N/A   Mostly Cloudy
5:55 PM 73.4 °F 59.0 °F 61% 29.74 in 10.0 mi South 11.5 mph - N/A   Overcast
6:15 PM 73.4 °F 59.0 °F 61% 29.75 in 10.0 mi SSE 9.2 mph - N/A   Overcast
6:35 PM 73.4 °F 59.0 °F 61% 29.75 in 10.0 mi SSE 5.8 mph - N/A   Overcast
6:55 PM 71.6 °F 60.8 °F 69% 29.75 in 10.0 mi SE 6.9 mph - N/A   Overcast
7:15 PM 71.6 °F 60.8 °F 69% 29.75 in 10.0 mi SSE 9.2 mph - N/A   Overcast
7:35 PM 73.4 °F 59.0 °F 61% 29.74 in 10.0 mi SSE 12.7 mph - N/A   Overcast
7:55 PM 73.4 °F 57.2 °F 57% 29.74 in 10.0 mi SSE 11.5 mph - N/A   Overcast
8:15 PM 73.4 °F 57.2 °F 57% 29.75 in 10.0 mi SSE 13.8 mph - N/A   Overcast
8:35 PM 73.4 °F 55.4 °F 53% 29.75 in 10.0 mi SSE 10.4 mph - N/A   Overcast
8:55 PM 71.6 °F 55.4 °F 57% 29.76 in 10.0 mi SSE 10.4 mph - N/A   Scattered Clouds
9:15 PM 71.6 °F 55.4 °F 57% 29.76 in 10.0 mi SSE 11.5 mph - N/A   Scattered Clouds
9:35 PM 71.6 °F 55.4 °F 57% 29.77 in 10.0 mi SE 8.1 mph - N/A   Mostly Cloudy
9:55 PM 69.8 °F 55.4 °F 60% 29.76 in 10.0 mi SE 9.2 mph - N/A   Scattered Clouds
10:15 PM 69.8 °F 55.4 °F 60% 29.75 in 10.0 mi ESE 10.4 mph - N/A   Clear
10:35 PM 68.0 °F 55.4 °F 64% 29.73 in 10.0 mi SE 12.7 mph 16.1 mph N/A   Clear
10:55 PM 68.0 °F 55.4 °F 64% 29.73 in 10.0 mi SE 9.2 mph - N/A   Clear
11:15 PM 68.0 °F 57.2 °F 68% 29.73 in 10.0 mi SSE 9.2 mph - N/A   Clear
11:35 PM 69.8 °F 59.0 °F 68% 29.73 in 10.0 mi SSE 9.2 mph - N/A   Clear
11:55 PM 69.8 °F 59.0 °F 68% 29.74 in 10.0 mi SSE 9.2 mph - N/A   Clear